Flag for Slovakia Weather past 2 weeks in Prešov, Slovakia

Now
50 °F

Light rain. Overcast.


Feels Like: 43 °F
Forecast: 33 / 43 °F
Wind: 23 mph from North

Location: Kosice - Barca

Current Time: Oct 23, 2014 at 1:50:26 PM

Latest Report: Oct 23, 2014 at 1:30 PM


Visibility: N/A

Pressure: 29.77 "Hg

Humidity: 94%

Dew point: 48 °F

Location of PrešovLocation

Historic Weather in Prešov — Graph

°F

Prešov temperature yesterday

Maximum temperature yesterday: 52 °F (at 11:00 AM)
Minimum temperature yesterday: 45 °F (at 5:30 PM)
Average temperature yesterday: 48 °F

Past Weeks' High & Low Weather Summary

 TemperatureHumidityPressure
High73 °F (Oct 12, 1:30 PM)100% (Oct 11, 6:00 AM)30.39 "Hg (Oct 11, 6:00 AM)
Low45 °F (Oct 19, 2:30 AM)53% (Oct 11, 2:30 PM)29.47 "Hg (Oct 22, 2:30 PM)
Average56 °F87%29.96 "Hg
* Reported Oct 8 12:00 Noon — Oct 23 12:30 PM, Prešov, Weather by CustomWeather, © 2014

Note: Actual official high and low records may vary slightly from our data, if they occured in-between our weather recording intervals... More about our weather records

Advertising

Prešov weather history for previous 24 hours

 ConditionsComfort  
Time TempWeatherWind HumidityBarometerVisibility
12:30 PM
Oct 23
50 °FLight rain. Clear.22 mph94%29.74 "HgN/A
12:00 PM50 °FLight rain. Clear.18 mph94%29.74 "HgN/A
11:30 AM50 °FLight rain. Overcast.18 mph88%29.74 "HgN/A
11:00 AM50 °FLight rain. Overcast.17 mph88%29.74 "HgN/A
10:30 AM50 °FLight rain. Overcast.17 mph88%29.71 "HgN/A
10:00 AM48 °FLight rain. Overcast.18 mph94%29.71 "HgN/A
9:30 AM48 °FLight rain. Overcast.15 mph87%29.71 "HgN/A
9:00 AM46 °FOvercast.13 mph93%29.71 "HgN/A
8:30 AM46 °FOvercast.9 mph93%29.71 "HgN/A
8:00 AM45 °FLight rain. Overcast.8 mph100%29.68 "HgN/A
7:30 AM45 °FLight rain. Overcast.9 mph93%29.68 "HgN/A
7:00 AM45 °FLight rain. Overcast.12 mph93%29.68 "HgN/A
6:30 AM45 °FLight rain. Overcast.12 mph93%29.68 "HgN/A
6:00 AM45 °FLight rain. Overcast.13 mph93%29.65 "HgN/A
5:30 AM45 °FOvercast.13 mph93%29.65 "HgN/A
5:00 AM45 °FLight rain. Overcast.13 mph93%29.65 "HgN/A
4:30 AM45 °FOvercast.12 mph93%29.65 "HgN/A
4:00 AM45 °FOvercast.12 mph93%29.65 "HgN/A
3:30 AM45 °FOvercast.12 mph87%29.65 "HgN/A
3:00 AM45 °FOvercast.9 mph87%29.65 "HgN/A
2:30 AM45 °FOvercast.9 mph93%29.62 "HgN/A
2:00 AM45 °FOvercast.12 mph93%29.62 "HgN/A
1:30 AM45 °FOvercast.13 mph93%29.62 "HgN/A
1:00 AM45 °FOvercast.13 mph87%29.62 "HgN/A
12:30 AM45 °FOvercast.12 mph93%29.62 "HgN/A
12:00 AM45 °FOvercast.8 mph87%29.62 "HgN/A
11:30 PM
Oct 22
45 °FOvercast.3 mph87%29.62 "HgN/A
11:00 PM45 °FOvercast.2 mph87%29.62 "HgN/A
10:30 PM46 °FOvercast.7 mph82%29.62 "HgN/A
10:00 PM45 °FOvercast.10 mph87%29.59 "HgN/A
9:30 PM46 °FOvercast.8 mph82%29.59 "HgN/A
9:00 PM46 °FOvercast.8 mph82%29.56 "HgN/A
8:30 PM46 °FOvercast.8 mph82%29.56 "HgN/A
8:00 PM45 °FOvercast.6 mph87%29.56 "HgN/A
7:30 PM45 °FLight rain. Overcast.12 mph87%29.56 "HgN/A
7:00 PM46 °FLight rain. Overcast.14 mph82%29.56 "HgN/A
6:30 PM45 °FLight rain. Overcast.8 mph87%29.56 "HgN/A
6:00 PM45 °FLight rain. Mostly cloudy.10 mph87%29.53 "HgN/A
5:30 PM45 °FLight rain. Overcast.17 mph93%29.50 "HgN/A
5:00 PM46 °FLight rain. Overcast.17 mph87%29.50 "HgN/A
4:30 PM46 °FLight rain. Overcast.18 mph87%29.47 "HgN/A
4:00 PM46 °FLight rain. Mostly cloudy.20 mph87%29.47 "HgN/A
3:30 PM46 °FLight rain. Mostly cloudy.21 mph87%29.47 "HgN/A
3:00 PM46 °FLight rain. Mostly cloudy.20 mph93%29.47 "Hg6 mi
2:30 PM48 °FLight rain. Mostly cloudy.20 mph87%29.47 "Hg6 mi
2:00 PM48 °FLight rain. Mostly cloudy.15 mph94%29.50 "Hg6 mi
1:30 PM50 °FLight rain. Overcast.14 mph88%29.50 "Hg6 mi
1:00 PM50 °FLight rain. Mostly cloudy.15 mph94%29.50 "Hg5 mi
Weather by CustomWeather, © 2014

See weather overviewHow to use our weather pages